Location: Archemont
(49.1579°N, 1.7598°E)
Time: 21:21:21
(UTC+00:00)

Altair - Pass Details

Date: 18 April 2024
Orbit: 1501 x 1682 km, 47.2° (Epoch: 19 May)

Event Time Altitude Azimuth Distance (km) Brightness Sun altitude
Rises 22:23:07 0° 270° (W) 4,877 10.4 -26.5°
Reaches altitude 10° 22:26:17 10° 270° (W) 3,869 9.8 -26.7°
Maximum altitude 22:36:08 80° 186° (S) 1,612 7.4 -27.3°
Enters shadow 22:42:49 23° 102° (ESE) 2,866 8.6 -27.7°
Drops below altitude 10° 22:45:36 10° 101° (E) 3,723 - -27.8°
Sets 22:48:36 0° 100° (E) 4,686 - -28.0°
